Weather History for Ypsilanti, MI

Change the Weather History Date:

Friday, January 6, 2012

  Actual Average Record
Temperature  
Mean Temperature 46 °F -  
Max Temperature 55 °F 30 °F 55 °F (2008)
Min Temperature 37 °F 19 °F -13 °F (2014)
Degree Days  
Heating Degree Days 19    
Moisture  
Dew Point 33 °F    
Average Humidity 66    
Maximum Humidity 76    
Minimum Humidity 47    
Precipitation  
Precipitation 0.00 in - - ()
Sea Level Pressure  
Sea Level Pressure 29.69 in    
Wind  
Wind Speed 12 mph (SW)    
Max Wind Speed 17 mph    
Max Gust Speed -    
Visibility 10 miles    
Events      
Averages and records for this station are not official NWS values.
T = Trace of Precipitation, MM = Missing Value Source: NWS Daily Summary

Daily Weather History Graph

Daily Weather History Graph

Search for Another Location

Airport:

Trip Planner

Search our weather history database for the weather conditions in past years. The results will help you decide how hot, cold, wet, or windy it might be!

Date:

Astronomy

Jan. 06, 2012 Rise Set
Actual Time 8:02 AM EST 5:16 PM EST
Civil Twilight 7:31 AM EST 5:48 PM EST
Nautical Twilight 6:56 AM EST 6:23 PM EST
Astronomical Twilight 6:22 AM EST 6:57 PM EST
Moon 3:06 PM EST (1/6) 5:42 AM EST (1/6)
Length of Visible Light 10h 16m
Length of Day
9h 13m
Waxing Gibbous, 93% of the Moon is Illuminated
Jan 6
Waxing Gibbous
Jan 9
Full
Jan 16
Last Quarter
Jan 23
New
Jan 30
First Quarter

Hourly Weather History & Observations

Time (EST) Temp. Windchill Dew Point Humidity Pressure Visibility Wind Dir Wind Speed Gust Speed Precip Events Conditions
12:53 AM 37.9 °F 29.6 °F 30.0 °F 73% 29.69 in 10.0 mi SW 13.8 mph - N/A   Clear
1:53 AM 37.9 °F 30.0 °F 30.0 °F 73% 29.67 in 10.0 mi SSW 12.7 mph - N/A   Clear
2:53 AM 39.2 °F 30.2 °F 30.2 °F 70% 29.67 in 10.0 mi SW 17.3 mph - N/A   Clear
3:53 AM 37.9 °F 30.9 °F 30.0 °F 73% 29.68 in 10.0 mi SW 10.4 mph - N/A   Clear
4:53 AM 37.0 °F 30.4 °F 28.9 °F 73% 29.68 in 10.0 mi SW 9.2 mph - N/A   Clear
5:53 AM 37.9 °F 29.2 °F 30.0 °F 73% 29.68 in 10.0 mi SSW 15.0 mph - N/A   Clear
6:53 AM 39.2 °F 30.8 °F 30.2 °F 70% 29.68 in 10.0 mi SW 15.0 mph - N/A   Clear
7:53 AM 39.0 °F 31.4 °F 30.0 °F 70% 29.70 in 10.0 mi SSW 12.7 mph - N/A   Clear
8:53 AM 39.0 °F 32.3 °F 30.9 °F 73% 29.71 in 10.0 mi SW 10.4 mph - N/A   Clear
9:53 AM 41.0 °F 33.5 °F 30.9 °F 67% 29.70 in 10.0 mi SSW 13.8 mph - N/A   Clear
10:53 AM 45.0 °F 38.9 °F 33.1 °F 63% 29.72 in 10.0 mi SSW 12.7 mph - N/A   Clear
11:53 AM 48.9 °F - 34.0 °F 56% 29.69 in 10.0 mi SSW 12.7 mph - N/A   Clear
12:53 PM 51.8 °F - 33.8 °F 50% 29.68 in 10.0 mi WSW 13.8 mph - N/A   Clear
1:53 PM 52.0 °F - 34.0 °F 50% 29.68 in 10.0 mi SW 13.8 mph - N/A   Clear
2:53 PM 54.0 °F - 35.1 °F 49% 29.66 in 10.0 mi SW 10.4 mph - N/A   Clear
3:53 PM 55.4 °F - 35.6 °F 47% 29.67 in 10.0 mi SW 15.0 mph - N/A   Clear
4:53 PM 51.1 °F - 36.0 °F 56% 29.69 in 10.0 mi SSW 10.4 mph - N/A   Clear
5:53 PM 48.9 °F - 36.0 °F 61% 29.70 in 10.0 mi SW 13.8 mph - N/A   Clear
6:53 PM 46.9 °F - 36.0 °F 66% 29.71 in 10.0 mi SW 9.2 mph - N/A   Clear
7:53 PM 46.0 °F 42.5 °F 36.0 °F 68% 29.72 in 10.0 mi SSW 6.9 mph - N/A   Clear
8:53 PM 43.0 °F 38.8 °F 35.1 °F 74% 29.73 in 10.0 mi SSW 6.9 mph - N/A   Clear
9:53 PM 43.0 °F 37.2 °F 35.1 °F 74% 29.71 in 10.0 mi South 10.4 mph - N/A   Clear
10:53 PM 42.1 °F 37.1 °F 34.0 °F 73% 29.69 in 10.0 mi SSW 8.1 mph - N/A   Clear
11:53 PM 41.0 °F 36.4 °F 34.0 °F 76% 29.68 in 10.0 mi SW 6.9 mph - N/A   Clear